[[{"header":{"parameterUnit":"m.s-1","parameterCategory":1,"la1":30.2991,"la2":30.254,"lo1":-89.0895,"lo2":-89.0444,"dy":0.0017,"dx":0.0017,"nx":28,"ny":28,"refTime":"2024-10-12T03:00:00:Z","depth":0,"parameterNumber":2,"parameterNumberName":"U-component_of_WINDS"},"data":[0,0,0,0,0,0,0,0,0,0,0,0,0,0,0,0,0,0,0,0,0,0,0,0,0,0,0,0,0,0,0,0,0,0,0,0,0,0,0,0,0,0,0,0,0,0,0,0,0,0,0,0,0,0,0,0,0,0,0.3134,0.3134,0,0.3127,0.3127,0.3127,0.3119,0.3119,0.3119,0.3119,0.3111,0.311,0.311,0,0,0,0,0,0,0,0,0,0,0,0,0,0.3136,0.3136,0.3134,0.3134,0.3134,0.3127,0.3127,0.3127,0.3119,0.3119,0.3119,0.3119,0.3111,0.311,0.311,0,0,0,0,0,0,0,0,0,0,0,0,0,0.3133,0.3136,0.3134,0.3129,0.3128,0.3127,0.3127,0.3127,0.3119,0.3119,0.3119,0.3118,0.3111,0.311,0.311,0.3113,0,0,0.311,0.311,0,0,0,0,0,0,0,0,0.3133,0.3133,0.313,0.3129,0.3129,0.3124,0.3125,0.3122,0.3119,0.3123,0.3119,0.3118,0.3115,0.3114,0.3114,0.3113,0.3113,0.311,0.311,0.311,0.311,0,0,0,0,0,0,0,0.3134,0.3133,0.3131,0.313,0.3129,0.3126,0.3125,0.3125,0.312,0.3122,0.3122,0.3121,0.3115,0.3114,0.3113,0.3112,0.311,0.311,0.311,0.311,0.3111,0.3112,0,0,0,0,0,0,0.3135,0.3133,0.3131,0.3131,0.3131,0.3126,0.3125,0.3126,0.312,0.3119,0.3121,0.3121,0.3114,0.3114,0.3113,0.3115,0.311,0.311,0.3109,0.3111,0.3111,0.3112,0,0,0,0,0,0,0.3135,0.3135,0.3132,0.3132,0.3131,0.3126,0.3127,0.3125,0.3125,0.3119,0.3118,0.3121,0.3114,0.3113,0.3113,0.3115,0.3109,0.3109,0.3111,0.3111,0.3112,0.3119,0,0,0,0,0,0,0.3135,0.3135,0.3137,0.3132,0.3131,0.3133,0.3127,0.3126,0.3125,0.3124,0.3119,0.3118,0.3114,0.3113,0.3113,0.3114,0.3109,0.3111,0.3111,0.3111,0.3119,0.312,0.3121,0,0,0,0,0,0.3135,0.3139,0.3137,0.3137,0.3134,0.3133,0.3132,0.3128,0.3125,0.3126,0.3122,0.3118,0.3114,0.3113,0.3113,0.3114,0.3111,0.3111,0.3111,0.3119,0.312,0.3121,0,0,0,0,0,0,0.3144,0.3139,0.3136,0.3139,0.3136,0.3131,0.3133,0.3129,0.3127,0.3126,0.312,0.3119,0.3119,0.3117,0.3115,0.3116,0.3112,0.3112,0.3117,0.3118,0.3119,0.312,0.3109,0,0,0,0,0,0.3146,0.3146,0.3141,0.3144,0.3143,0.3138,0.3138,0.3134,0.3131,0.313,0.3126,0.3123,0.312,0.3119,0.3117,0.3118,0.3116,0.3119,0.312,0.312,0.3121,0.3119,0.312,0.3113,0.3113,0.3113,0,0,0.3151,0.3148,0.3149,0.3146,0.3144,0.3143,0.3137,0.3137,0.3136,0.313,0.3129,0.3126,0.3122,0.3122,0.3121,0.3119,0.3122,0.3121,0.3121,0.3121,0.312,0.3121,0.3121,0.3113,0.3113,0.3113,0,0,0.3159,0.3157,0.3159,0.3156,0.3153,0.3149,0.3149,0.3145,0.3142,0.3142,0.3136,0.3134,0.3131,0.3128,0.3126,0.3131,0.3127,0.313,0.3134,0.3133,0.3134,0.3134,0.3135,0.3136,0.313,0.313,0.313,0,0.3165,0.3165,0.316,0.316,0.3158,0.3152,0.3153,0.315,0.3146,0.3145,0.3143,0.3138,0.3134,0.3133,0.3134,0.3133,0.3132,0.3131,0.3134,0.3135,0.3135,0.3136,0.3136,0.3131,0.3131,0.3131,0.3131,0,0.3172,0.3171,0.3173,0.3169,0.3167,0.3168,0.3162,0.3161,0.3157,0.3153,0.3152,0.3147,0.3143,0.3143,0.3139,0.314,0.3139,0.3136,0.3132,0.3136,0.3137,0.3137,0.3131,0.3131,0.3131,0.3131,0,0,0.3186,0.3178,0.3179,0.3176,0.3171,0.317,0.317,0.3166,0.3165,0.3161,0.316,0.3157,0.3153,0.3151,0.3147,0.3146,0.3148,0.3142,0.3142,0.3143,0.3147,0.315,0.315,0.3145,0.3145,0.3145,0.3148,0,0.3192,0.3192,0.3187,0.3187,0.3185,0.3179,0.3178,0.3174,0.317,0.3167,0.3163,0.316,0.3156,0.3155,0.3153,0.3148,0.3149,0.3148,0.3143,0.3143,0.3144,0.3151,0.3153,0.3156,0.3148,0.3148,0.3148,0,0.32,0.3197,0.3197,0.3191,0.319,0.319,0.3185,0.3183,0.3178,0.3175,0.3172,0.3167,0.3164,0.3161,0.3156,0.3156,0.3153,0.315,0.315,0.3149,0.3146,0.3149,0.3156,0.3156,0.3148,0.3148,0.3148,0,0.3209,0.3205,0.3204,0.3203,0.3195,0.3195,0.3192,0.3186,0.3184,0.318,0.3178,0.3173,0.3171,0.3167,0.316,0.3158,0.3156,0.3152,0.3153,0.3153,0.3153,0.3153,0.3159,0.3152,0.3152,0.3152,0.3152,0,0.3217,0.3217,0.3208,0.3208,0.3207,0.3201,0.32,0.3196,0.3191,0.3188,0.3182,0.318,0.3172,0.3168,0.3163,0.316,0.3159,0.3155,0.3154,0.3156,0.3156,0.3154,0.3154,0.3152,0.3152,0.3152,0.3152,0,0.3227,0.3221,0.322,0.3213,0.3211,0.321,0.3204,0.3202,0.3198,0.3195,0.3194,0.3186,0.3181,0.3174,0.3168,0.3164,0.3161,0.3159,0.3163,0.3162,0.3163,0.3163,0.3167,0.3167,0.3161,0.3161,0.3161,0,0.3232,0.3231,0.3224,0.3222,0.3219,0.3217,0.3214,0.3207,0.3205,0.3198,0.3197,0.3192,0.3187,0.318,0.3173,0.3168,0.3165,0.3167,0.3164,0.3166,0.3164,0.3164,0.3164,0.3168,0.3168,0.3168,0.3168,0,0.3241,0.3238,0.3235,0.323,0.3227,0.3223,0.3219,0.3218,0.3209,0.3207,0.3202,0.3199,0.3191,0.3186,0.3179,0.3175,0.317,0.3169,0.3169,0.317,0.3172,0.3171,0.3164,0.3169,0.3169,0.3169,0.3169,0.3169,0.3248,0.3247,0.3241,0.3237,0.3233,0.3229,0.3227,0.3222,0.3218,0.3212,0.3208,0.3203,0.3196,0.3187,0.3183,0.3178,0.3176,0.3176,0.3176,0.3176,0.3176,0.3173,0.3177,0.3177,0.3177,0.3177,0.3177,0,0.3255,0.3251,0.3248,0.3242,0.3239,0.3235,0.3229,0.3226,0.3223,0.3217,0.3213,0.3206,0.3201,0.3193,0.3187,0.3185,0.3182,0.3183,0.3183,0.3182,0.3178,0.3179,0.3185,0.3185,0.3185,0.3185,0.3185,0.3185,0.3259,0.3257,0.3253,0.3248,0.3244,0.3239,0.3236,0.3232,0.3227,0.3221,0.3217,0.3212,0.3205,0.3198,0.3192,0.319,0.3188,0.3189,0.3186,0.3183,0.3182,0.3182,0.3182,0.3189,0.3189,0.319,0.319,0.319]},{"header":{"parameterUnit":"m.s-1","parameterCategory":1,"la1":30.2991,"la2":30.254,"lo1":-89.0895,"lo2":-89.0444,"dy":0.0017,"dx":0.0017,"nx":28,"ny":28,"refTime":"2024-10-12T03:00:00:Z","depth":0,"parameterNumber":3,"parameterNumberName":"V-component_of_WINDS"},"data":[0,0,0,0,0,0,0,0,0,0,0,0,0,0,0,0,0,0,0,0,0,0,0,0,0,0,0,0,0,0,0,0,0,0,0,0,0,0,0,0,0,0,0,0,0,0,0,0,0,0,0,0,0,0,0,0,0,0,-0.1682,-0.1683,0,-0.1766,-0.1767,-0.1768,-0.1835,-0.1836,-0.1836,-0.1837,-0.1924,-0.1925,-0.1927,0,0,0,0,0,0,0,0,0,0,0,0,0,-0.1582,-0.1583,-0.1682,-0.1683,-0.1684,-0.1766,-0.1767,-0.1768,-0.1835,-0.1836,-0.1837,-0.1837,-0.1923,-0.1925,-0.1927,0,0,0,0,0,0,0,0,0,0,0,0,0,-0.1641,-0.1584,-0.1682,-0.1727,-0.1732,-0.1765,-0.1767,-0.1768,-0.1835,-0.1836,-0.1837,-0.1838,-0.1923,-0.1925,-0.1927,-0.1922,0,0,-0.1935,-0.1936,0,0,0,0,0,0,0,0,-0.1638,-0.1645,-0.172,-0.1724,-0.173,-0.1791,-0.1763,-0.182,-0.1835,-0.1796,-0.1837,-0.1838,-0.1879,-0.1885,-0.1898,-0.1926,-0.193,-0.1935,-0.1937,-0.1938,-0.1939,0,0,0,0,0,0,0,-0.1634,-0.1642,-0.1715,-0.1721,-0.1727,-0.1744,-0.1754,-0.1774,-0.1831,-0.1799,-0.1804,-0.1813,-0.1882,-0.1896,-0.1901,-0.1931,-0.1935,-0.1937,-0.1939,-0.194,-0.1962,-0.1961,0,0,0,0,0,0,-0.1622,-0.1638,-0.1713,-0.1718,-0.1686,-0.1745,-0.1756,-0.177,-0.1831,-0.1841,-0.1812,-0.1816,-0.1891,-0.1898,-0.1904,-0.1904,-0.1938,-0.194,-0.1942,-0.1963,-0.1962,-0.1961,0,0,0,0,0,0,-0.162,-0.1628,-0.1709,-0.1679,-0.1691,-0.1746,-0.1762,-0.1771,-0.1786,-0.184,-0.1851,-0.1816,-0.1892,-0.1901,-0.1918,-0.1908,-0.1941,-0.1944,-0.1964,-0.1962,-0.1961,-0.1901,0,0,0,0,0,0,-0.1617,-0.1627,-0.1625,-0.1679,-0.1692,-0.172,-0.1761,-0.1772,-0.179,-0.1795,-0.1847,-0.1856,-0.1894,-0.1914,-0.192,-0.1912,-0.1946,-0.1965,-0.1963,-0.1961,-0.1904,-0.1898,-0.1893,0,0,0,0,0,-0.1613,-0.1605,-0.1625,-0.1633,-0.1691,-0.172,-0.1727,-0.177,-0.1788,-0.1788,-0.1823,-0.1855,-0.1908,-0.1915,-0.1923,-0.1915,-0.1966,-0.1964,-0.1962,-0.1907,-0.1899,-0.1893,0,0,0,0,0,0,-0.1548,-0.1613,-0.1635,-0.1644,-0.1676,-0.1731,-0.1731,-0.176,-0.1788,-0.1792,-0.1844,-0.1855,-0.1867,-0.1893,-0.19,-0.1914,-0.1941,-0.194,-0.1897,-0.189,-0.1884,-0.1878,-0.1948,0,0,0,0,0,-0.1535,-0.1553,-0.1608,-0.1611,-0.1625,-0.1675,-0.1689,-0.172,-0.1755,-0.1769,-0.1805,-0.1839,-0.1863,-0.1878,-0.1903,-0.1909,-0.1922,-0.1907,-0.1901,-0.1896,-0.1895,-0.1902,-0.1896,-0.1954,-0.1954,-0.1954,0,0,-0.1508,-0.1545,-0.1553,-0.1599,-0.1627,-0.1645,-0.1686,-0.1703,-0.1717,-0.1771,-0.179,-0.1818,-0.1859,-0.187,-0.1877,-0.1892,-0.1882,-0.1893,-0.1889,-0.1891,-0.1899,-0.1893,-0.1889,-0.1952,-0.1953,-0.1953,0,0,-0.1468,-0.1497,-0.1503,-0.1531,-0.1573,-0.1607,-0.1608,-0.1659,-0.168,-0.1699,-0.1741,-0.1759,-0.1799,-0.1827,-0.1846,-0.1818,-0.1849,-0.1825,-0.1794,-0.18,-0.1796,-0.1792,-0.1783,-0.1779,-0.1824,-0.1824,-0.1824,0,-0.1429,-0.1457,-0.1503,-0.1517,-0.1537,-0.1587,-0.1594,-0.1619,-0.1667,-0.168,-0.1696,-0.1749,-0.178,-0.1799,-0.1792,-0.1806,-0.181,-0.182,-0.1793,-0.1789,-0.1786,-0.1779,-0.1775,-0.1821,-0.1821,-0.1821,-0.1822,0,-0.1407,-0.1426,-0.1426,-0.1472,-0.1491,-0.1502,-0.155,-0.1565,-0.1593,-0.1625,-0.1646,-0.1685,-0.1719,-0.1726,-0.1754,-0.175,-0.1758,-0.1783,-0.1811,-0.1777,-0.1771,-0.1768,-0.1816,-0.1817,-0.1818,-0.1819,0,0,-0.1328,-0.14,-0.1399,-0.1422,-0.1473,-0.1489,-0.1502,-0.1536,-0.1548,-0.158,-0.1594,-0.1627,-0.1651,-0.1673,-0.1705,-0.1709,-0.1686,-0.1734,-0.1735,-0.1724,-0.1686,-0.1668,-0.1664,-0.1707,-0.1707,-0.1706,-0.1683,0,-0.1297,-0.1324,-0.1366,-0.138,-0.1399,-0.1447,-0.146,-0.1493,-0.1523,-0.1544,-0.1579,-0.1602,-0.163,-0.1644,-0.1651,-0.1688,-0.168,-0.169,-0.1721,-0.1722,-0.171,-0.166,-0.1641,-0.1617,-0.1681,-0.168,-0.168,0,-0.1264,-0.1293,-0.1309,-0.136,-0.1369,-0.1379,-0.1415,-0.1434,-0.1473,-0.1495,-0.152,-0.1556,-0.1574,-0.1599,-0.1625,-0.1631,-0.1647,-0.1667,-0.1667,-0.1672,-0.1699,-0.1665,-0.161,-0.1607,-0.1676,-0.1677,-0.1677,0,-0.1206,-0.1249,-0.1265,-0.1282,-0.1342,-0.1348,-0.1373,-0.1413,-0.1432,-0.1463,-0.1476,-0.1508,-0.1526,-0.1552,-0.1595,-0.1609,-0.1618,-0.1646,-0.1637,-0.1636,-0.1637,-0.1637,-0.1585,-0.1646,-0.1646,-0.1646,-0.1646,0,-0.1167,-0.1174,-0.124,-0.1249,-0.126,-0.1309,-0.1318,-0.1348,-0.1384,-0.14,-0.1445,-0.146,-0.1516,-0.1538,-0.1572,-0.159,-0.1597,-0.1617,-0.1626,-0.1613,-0.1611,-0.1624,-0.1627,-0.1645,-0.1645,-0.1645,-0.1645,0,-0.1104,-0.1148,-0.1168,-0.1223,-0.1237,-0.1243,-0.129,-0.1302,-0.1336,-0.1356,-0.1364,-0.1417,-0.1445,-0.1491,-0.1533,-0.1556,-0.1568,-0.1583,-0.1554,-0.156,-0.1549,-0.155,-0.1505,-0.1503,-0.1563,-0.1563,-0.1562,0,-0.1076,-0.1083,-0.114,-0.1154,-0.1178,-0.12,-0.1219,-0.1268,-0.1287,-0.1333,-0.1339,-0.1371,-0.1399,-0.1442,-0.1485,-0.1517,-0.1534,-0.1516,-0.1539,-0.1526,-0.1535,-0.1534,-0.1536,-0.151,-0.1509,-0.1509,-0.1508,0,-0.1023,-0.1045,-0.107,-0.1104,-0.1126,-0.1155,-0.1186,-0.1195,-0.1251,-0.127,-0.1299,-0.1321,-0.1364,-0.1396,-0.1434,-0.1462,-0.1495,-0.1501,-0.1501,-0.1488,-0.1472,-0.1482,-0.1541,-0.1501,-0.1502,-0.1503,-0.1503,-0.1503,-0.0978,-0.0987,-0.1028,-0.1056,-0.1085,-0.1113,-0.1127,-0.1163,-0.1188,-0.1227,-0.1255,-0.1283,-0.1323,-0.1379,-0.1404,-0.1428,-0.1442,-0.1442,-0.1442,-0.1441,-0.1437,-0.1467,-0.1435,-0.1435,-0.1435,-0.1436,-0.1436,0,-0.0928,-0.0957,-0.0982,-0.1025,-0.1047,-0.1076,-0.1112,-0.1129,-0.1153,-0.1188,-0.1215,-0.125,-0.1281,-0.1326,-0.1361,-0.1371,-0.1387,-0.1379,-0.1379,-0.1385,-0.1421,-0.1418,-0.1365,-0.1365,-0.1365,-0.1365,-0.1365,-0.1365,-0.0905,-0.0922,-0.0949,-0.0982,-0.1012,-0.1039,-0.1058,-0.1085,-0.1113,-0.115,-0.1176,-0.1205,-0.1245,-0.1284,-0.1314,-0.1327,-0.1338,-0.1325,-0.1342,-0.1375,-0.1382,-0.1388,-0.1386,-0.1326,-0.1326,-0.1304,-0.1304,-0.1304]}]]